Location: Kitchener
(43.4500°N, 80.5000°W)
Time: 08:54:57
(UTC-04:00)

ATLAS 5 CENTAUR R/B - Visible Passes

Search period start: 26 May 2017 00:00
Search period end: 05 June 2017 00:00
Orbit: 636 x 1024 km, 63.4° (Epoch: 29 April)

Date Brightness Start Highest point End Pass type
(mag) Time Alt. Az. Time Alt. Az. Time Alt. Az.
27 May 2.7 05:09:19 10° SSW 05:13:45 46° ESE 05:18:35 10° NE visible
28 May 2.7 04:50:26 10° S 04:54:49 43° ESE 04:59:35 10° NE visible
29 May 2.8 04:31:33 10° S 04:35:53 40° ESE 04:40:35 10° NE visible
30 May 2.9 04:13:11 13° S 04:16:57 37° ESE 04:21:34 10° NE visible
31 May 2.9 03:54:55 16° S 03:58:01 35° ESE 04:02:33 10° NE visible
01 Jun 3.0 03:36:36 20° SSE 03:39:05 32° ESE 03:43:32 10° NE visible
02 Jun 3.0 03:18:15 22° SSE 03:20:09 30° ESE 03:24:30 10° NE visible
02 Jun 2.7 05:00:12 10° WSW 05:04:40 39° NW 05:09:33 10° NNE visible
03 Jun 3.0 02:59:50 24° SE 03:01:13 28° ESE 03:05:28 10° NE visible
03 Jun 2.7 04:41:22 11° WSW 04:45:40 41° NW 04:50:36 10° NNE visible
04 Jun 3.1 02:41:23 25° SE 02:42:18 26° ESE 02:46:25 10° ENE visible
04 Jun 2.6 04:22:55 15° WSW 04:26:41 44° NW 04:31:39 10° NNE visible
